"startDT [UTC]","vpos","CH4 [ppm]","stdev(CH4) [ppm]","CO2 [ppm]","stdev(CO2) [ppm]","H2O [ppm]","stdev(H2O)","p_LGR [torr]","T_LGR [C]","mt1_LGR [us]","mt2_LGR [us]","T_ECpre [C]","T_EC1 [C]","T_EC2 [C]","p_inlet [hPa]","p_in [hPa]","p_out [hPa]","T_inlet [C]","RH_inlet [%]","dwpt_inlet [C]","T_vent [C]","RH_vent [%]","dwpt_vent [C]","flow_vent [l min-1]","flow_inlet [l min-1]","dwpt_sample [C]","T_room [C]"
2012-06-16 00:00:00,0.0,1.8829,0.0011,400.08,0.30,43.8,31.6,138.04,32.50,24.65,36.50,0.94,16.22,-26.45,-62,541,-940,27.3,14.4,-2.2,27.2,1.2,-31.2,5.73,2.40,-27.5,31.3
2012-06-16 00:01:00,0.0,1.8829,0.0011,400.37,0.28,37.3,28.6,138.04,32.49,24.65,36.49,0.96,16.32,-26.45,-62,542,-940,27.3,14.2,-2.4,27.2,1.3,-31.2,5.73,2.40,-27.5,31.3
2012-06-16 00:02:00,0.0,1.8828,0.0011,400.20,0.30,36.1,24.3,138.04,32.48,24.65,36.50,0.95,16.42,-26.44,-62,541,-940,27.3,14.2,-2.4,27.2,1.2,-31.2,5.73,2.39,-27.6,31.3
2012-06-16 00:03:00,0.0,1.8824,0.0009,400.27,0.30,47.8,29.7,138.04,32.48,24.66,36.49,0.95,16.52,-26.44,-62,541,-940,27.3,14.2,-2.3,27.2,1.3,-31.1,5.73,2.38,-27.6,31.2
2012-06-16 00:04:00,0.0,1.8824,0.0010,400.32,0.31,46.1,30.3,138.04,32.47,24.66,36.49,0.93,16.61,-26.44,-62,541,-939,27.3,14.1,-2.5,27.2,1.3,-31.2,5.73,2.37,-27.6,31.1
2012-06-16 00:05:00,0.0,1.8824,0.0010,400.22,0.34,48.2,28.3,138.04,32.46,24.65,36.49,0.96,16.69,-26.44,-62,541,-940,27.2,14.1,-2.5,27.2,1.3,-31.1,5.73,2.39,-27.6,31.2
2012-06-16 00:06:00,0.0,1.8822,0.0009,400.21,0.27,41.1,27.9,138.04,32.45,24.66,36.49,0.95,16.78,-26.44,-62,541,-940,27.2,14.2,-2.4,27.2,1.3,-31.1,5.73,2.40,-27.6,31.2
2012-06-16 00:07:00,0.0,1.8827,0.0009,400.32,0.32,44.9,25.4,138.04,32.44,24.65,36.49,0.97,16.86,-26.44,-62,541,-940,27.2,14.1,-2.5,27.2,1.2,-31.2,5.73,2.40,-27.6,31.2
2012-06-16 00:08:00,0.0,1.8827,0.0010,400.27,0.32,50.4,29.7,138.04,32.44,24.65,36.49,0.94,16.94,-26.43,-62,541,-940,27.2,14.0,-2.7,27.2,1.2,-31.3,5.73,2.39,-27.6,31.3
2012-06-16 00:09:00,0.0,1.8821,0.0010,400.26,0.35,45.6,30.9,138.04,32.43,24.65,36.49,0.95,17.01,-26.43,-62,541,-940,27.2,14.2,-2.4,27.2,1.2,-31.2,5.73,2.38,-27.6,31.2
2012-06-16 00:10:00,0.0,1.8820,0.0010,400.18,0.31,40.1,24.8,138.04,32.42,24.65,36.50,0.97,17.09,-26.43,-62,541,-939,27.2,14.2,-2.4,27.2,1.3,-31.1,5.73,2.37,-27.6,31.3
2012-06-16 00:11:00,0.0,1.8819,0.0009,400.24,0.30,38.2,28.8,138.04,32.41,24.66,36.49,0.94,17.15,-26.44,-62,541,-940,27.2,14.1,-2.5,27.2,1.3,-31.1,5.73,2.38,-27.6,31.2
2012-06-16 00:12:00,0.0,1.8822,0.0010,400.35,0.29,50.5,29.1,138.04,32.41,24.66,36.49,0.93,17.21,-26.43,-62,541,-939,27.2,14.1,-2.5,27.2,1.3,-31.1,5.73,2.39,-27.6,31.3
2012-06-16 00:13:00,0.0,1.8825,0.0010,400.23,0.29,43.7,28.4,138.04,32.40,24.65,36.49,0.95,17.27,-26.43,-62,541,-940,27.2,14.3,-2.3,27.2,1.3,-31.1,5.73,2.40,-27.6,31.2
2012-06-16 00:14:00,0.0,1.8825,0.0010,400.19,0.30,42.7,26.5,138.04,32.39,24.65,36.49,0.94,17.33,-26.43,-62,541,-940,27.2,14.4,-2.2,27.2,1.3,-31.1,5.73,2.40,-27.6,31.2
2012-06-16 00:15:00,0.0,1.8821,0.0010,400.30,0.30,45.8,30.9,138.04,32.39,24.66,36.48,0.95,17.39,-26.43,-62,541,-939,27.2,14.6,-2.0,27.2,1.3,-31.0,5.73,2.38,-27.6,31.2
2012-06-16 00:16:00,0.0,1.8823,0.0009,400.31,0.29,37.0,27.0,138.04,32.38,24.65,36.49,0.95,17.44,-26.43,-62,541,-940,27.2,14.4,-2.3,27.2,1.3,-31.0,5.73,2.37,-27.6,31.2
2012-06-16 00:17:00,0.0,1.8825,0.0009,400.31,0.32,35.5,25.0,138.04,32.37,24.65,36.48,0.95,17.49,-26.43,-62,541,-939,27.2,14.3,-2.3,27.2,1.3,-31.0,5.73,2.38,-27.6,31.2
2012-06-16 00:18:00,0.0,1.8823,0.0010,400.19,0.33,40.3,26.2,138.04,32.36,24.65,36.49,0.95,17.55,-26.42,-62,541,-940,27.2,14.5,-2.2,27.2,1.3,-31.0,5.73,2.38,-27.7,31.2
2012-06-16 00:19:00,0.0,1.8822,0.0010,400.24,0.27,40.4,29.2,138.04,32.36,24.65,36.49,0.94,17.60,-26.43,-62,541,-940,27.2,14.3,-2.3,27.2,1.3,-31.0,5.73,2.40,-27.6,31.2
2012-06-16 00:20:00,0.0,1.8823,0.0011,400.18,0.31,43.6,30.5,138.04,32.35,24.65,36.49,0.95,17.64,-26.43,-62,541,-939,27.2,14.6,-2.0,27.1,1.3,-31.0,5.73,2.40,-27.6,31.2
2012-06-16 00:21:00,0.0,1.8825,0.0010,400.26,0.33,36.9,26.3,138.04,32.34,24.65,36.49,0.95,17.67,-26.43,-62,541,-940,27.2,14.6,-2.1,27.1,1.3,-31.1,5.73,2.39,-27.7,31.1
2012-06-16 00:22:00,0.0,1.8828,0.0010,400.26,0.34,41.8,33.3,138.04,32.34,24.65,36.49,0.94,17.72,-26.43,-62,541,-940,27.2,14.2,-2.4,27.1,1.3,-31.1,5.73,2.38,-27.7,31.1
2012-06-16 00:23:00,0.0,1.8826,0.0011,400.27,0.28,39.9,27.1,138.04,32.33,24.65,36.49,0.94,17.76,-26.43,-62,541,-940,27.2,14.4,-2.3,27.1,1.3,-31.0,5.73,2.37,-27.7,31.2
2012-06-16 00:24:00,0.0,1.8825,0.0009,400.16,0.34,37.2,31.3,138.04,32.33,24.66,36.49,0.96,17.80,-26.42,-62,541,-940,27.2,14.2,-2.5,27.1,1.3,-31.1,5.73,2.38,-27.7,31.2
2012-06-16 00:25:00,0.0,1.8825,0.0011,400.28,0.27,39.8,28.0,138.05,32.32,24.66,36.49,0.95,17.84,-26.42,-62,541,-939,27.2,14.2,-2.5,27.1,1.3,-31.1,5.73,2.39,-27.6,31.2
2012-06-16 00:26:00,0.0,1.8827,0.0010,400.20,0.33,30.5,27.8,138.04,32.31,24.65,36.50,0.95,17.87,-26.42,-62,541,-940,27.2,14.1,-2.6,27.1,1.3,-31.1,5.73,2.39,-27.7,31.2
2012-06-16 00:27:00,0.0,1.8827,0.0009,400.17,0.33,31.1,29.5,138.05,32.30,24.65,36.49,0.96,17.90,-26.43,-62,541,-940,27.2,14.3,-2.4,27.1,1.3,-31.1,5.73,2.40,-27.6,31.2
2012-06-16 00:28:00,0.0,1.8828,0.0010,400.28,0.30,46.0,29.4,138.05,32.30,24.65,36.49,0.94,17.94,-26.42,-62,541,-939,27.2,14.3,-2.4,27.1,1.3,-31.0,5.73,2.39,-27.7,31.2
2012-06-16 00:29:00,0.0,1.8827,0.0009,400.25,0.29,38.9,26.5,138.04,32.29,24.65,36.49,0.95,17.97,-26.42,-62,541,-940,27.2,14.3,-2.4,27.1,1.3,-31.1,5.73,2.38,-27.7,31.2
2012-06-16 00:30:00,0.0,1.8826,0.0009,400.36,0.28,34.8,27.2,138.04,32.29,24.66,36.48,0.96,18.00,-26.42,-62,541,-939,27.1,14.2,-2.4,27.1,1.3,-31.0,5.73,2.38,-27.7,31.1
2012-06-16 00:31:00,0.0,1.8826,0.0013,400.43,0.31,36.4,26.4,138.04,32.28,24.65,36.49,0.94,18.03,-26.42,-62,541,-939,27.1,14.0,-2.7,27.1,1.3,-31.0,5.73,2.38,-27.7,31.1
2012-06-16 00:32:00,0.0,1.8829,0.0009,400.25,0.37,34.8,25.8,138.05,32.28,24.65,36.49,0.95,18.05,-26.42,-62,541,-940,27.1,14.1,-2.5,27.1,1.3,-31.1,5.73,2.38,-27.7,31.1
2012-06-16 00:33:00,0.0,1.8825,0.0011,400.32,0.28,33.0,26.5,138.05,32.27,24.66,36.49,0.95,18.08,-26.42,-62,541,-939,27.1,14.4,-2.3,27.1,1.3,-31.1,5.73,2.39,-27.7,31.1
2012-06-16 00:34:00,0.0,1.8830,0.0010,400.19,0.34,42.4,26.0,138.05,32.26,24.65,36.50,0.95,18.10,-26.42,-62,541,-940,27.1,14.5,-2.2,27.1,1.3,-31.1,5.73,2.40,-27.7,31.1
2012-06-16 00:35:00,0.0,1.8831,0.0010,400.24,0.30,32.8,26.7,138.05,32.26,24.65,36.49,0.94,18.13,-26.42,-62,541,-939,27.1,14.1,-2.6,27.1,1.3,-31.1,5.73,2.39,-27.7,31.2
2012-06-16 00:36:00,0.0,1.8826,0.0010,400.28,0.31,38.1,32.3,138.04,32.25,24.65,36.49,0.96,18.15,-26.42,-62,541,-939,27.1,14.4,-2.3,27.1,1.3,-31.1,5.73,2.38,-27.7,31.2
2012-06-16 00:37:00,0.0,1.8828,0.0009,400.28,0.36,41.2,24.4,138.04,32.25,24.65,36.49,0.94,18.17,-26.42,-62,541,-940,27.1,14.4,-2.3,27.1,1.3,-31.1,5.73,2.38,-27.7,31.1
2012-06-16 00:38:00,0.0,1.8826,0.0009,400.35,0.31,35.5,33.1,138.04,32.24,24.65,36.49,0.96,18.19,-26.42,-62,541,-939,27.1,14.3,-2.4,27.1,1.3,-31.1,5.73,2.38,-27.7,31.0
2012-06-16 00:39:00,0.0,1.8829,0.0009,400.21,0.31,31.4,29.8,138.05,32.23,24.65,36.49,0.93,18.21,-26.42,-62,541,-939,27.1,14.5,-2.2,27.1,1.3,-31.1,5.73,2.38,-27.7,31.0
2012-06-16 00:40:00,0.0,1.8828,0.0010,400.35,0.30,32.6,29.6,138.05,32.23,24.65,36.49,0.95,18.23,-26.42,-62,541,-940,27.1,14.4,-2.3,27.0,1.3,-31.1,5.73,2.39,-27.7,31.0
2012-06-16 00:41:00,0.0,1.8828,0.0010,400.27,0.36,31.6,24.3,138.05,32.22,24.65,36.49,0.95,18.24,-26.42,-62,541,-939,27.1,14.5,-2.3,27.0,1.3,-31.1,5.73,2.40,-27.7,30.9
2012-06-16 00:42:00,0.0,1.8829,0.0010,400.31,0.32,30.8,29.0,138.05,32.22,24.65,36.49,0.95,18.26,-26.42,-62,541,-940,27.1,14.2,-2.5,27.0,1.3,-31.1,5.73,2.39,-27.7,31.0
2012-06-16 00:43:00,0.0,1.8826,0.0009,400.21,0.37,40.3,29.3,138.05,32.21,24.65,36.49,0.95,18.28,-26.43,-62,541,-940,27.1,14.3,-2.5,27.0,1.3,-31.1,5.73,2.39,-27.7,31.0
2012-06-16 00:44:00,0.0,1.8828,0.0011,400.28,0.28,36.4,26.5,138.05,32.20,24.65,36.49,0.95,18.28,-26.42,-62,541,-939,27.1,14.3,-2.4,27.0,1.3,-31.1,5.73,2.38,-27.8,31.0
2012-06-16 00:45:00,0.0,1.8825,0.0010,400.35,0.30,35.4,26.4,138.04,32.20,24.65,36.48,0.96,18.31,-26.42,-62,541,-939,27.1,14.5,-2.3,27.0,1.3,-31.1,5.73,2.37,-27.8,31.0
2012-06-16 00:46:00,0.0,1.8826,0.0011,400.34,0.31,37.0,28.8,138.05,32.19,24.65,36.49,0.94,18.32,-26.43,-62,541,-939,27.1,14.4,-2.4,27.0,1.3,-31.1,5.73,2.38,-27.8,31.0
2012-06-16 00:47:00,0.0,1.8826,0.0008,400.24,0.27,30.8,27.4,138.04,32.19,24.65,36.49,0.96,18.34,-26.43,-62,541,-939,27.1,14.4,-2.4,27.0,1.3,-31.1,5.73,2.38,-27.8,31.0
2012-06-16 00:48:00,0.0,1.8824,0.0010,400.23,0.28,31.1,21.8,138.05,32.18,24.65,36.49,0.95,18.34,-26.43,-62,541,-940,27.0,14.5,-2.3,27.0,1.3,-31.1,5.73,2.39,-27.8,31.0
2012-06-16 00:49:00,0.0,1.8828,0.0010,400.42,0.30,38.1,30.2,138.05,32.18,24.65,36.48,0.96,18.36,-26.42,-62,541,-939,27.0,14.2,-2.5,27.0,1.3,-31.1,5.73,2.40,-27.8,31.0
2012-06-16 00:50:00,0.0,1.8826,0.0011,400.33,0.34,35.6,27.7,138.05,32.17,24.65,36.48,0.96,18.37,-26.43,-62,541,-939,27.1,14.4,-2.4,27.0,1.3,-31.1,5.73,2.39,-27.8,31.0
2012-06-16 00:51:00,0.0,1.8823,0.0011,400.26,0.29,37.4,26.8,138.05,32.16,24.65,36.49,1.12,17.78,-26.43,-62,541,-939,27.0,14.7,-2.1,27.0,1.3,-31.2,5.73,2.38,-27.8,31.0
2012-06-16 00:52:00,0.0,1.8824,0.0012,400.27,0.31,25.9,26.6,138.05,32.16,24.65,36.49,1.11,15.82,-26.44,-62,541,-939,27.0,14.8,-2.0,27.0,1.3,-31.1,5.73,2.38,-27.8,31.0
2012-06-16 00:53:00,0.0,1.8825,0.0011,400.28,0.33,34.4,30.7,138.05,32.16,24.65,36.49,0.98,13.52,-26.44,-62,541,-939,27.0,14.7,-2.1,27.0,1.3,-31.2,5.73,2.38,-27.8,31.0
2012-06-16 00:54:00,0.0,1.8828,0.0009,400.30,0.30,41.1,27.5,138.05,32.15,24.65,36.49,1.09,11.20,-26.43,-62,541,-939,27.0,14.6,-2.2,27.0,1.3,-31.1,5.73,2.38,-27.8,31.0
2012-06-16 00:55:00,0.0,1.8824,0.0010,400.31,0.32,32.9,28.8,138.05,32.14,24.65,36.48,1.06,8.93,-26.42,-62,541,-939,27.1,14.7,-2.1,27.0,1.3,-31.1,5.73,2.39,-27.7,31.1
2012-06-16 00:56:00,0.0,1.8827,0.0009,400.43,0.31,31.1,26.9,138.05,32.14,24.65,36.48,0.99,6.75,-26.41,-62,541,-939,27.0,14.6,-2.2,27.0,1.3,-31.1,5.73,2.40,-27.7,31.0
2012-06-16 00:57:00,0.0,1.8832,0.0009,400.35,0.31,36.8,25.9,138.05,32.13,24.65,36.49,1.09,4.68,-26.39,-62,541,-939,27.1,14.6,-2.2,27.0,1.3,-31.1,5.73,2.40,-27.7,31.0
2012-06-16 00:58:00,0.0,1.8828,0.0008,400.31,0.36,34.8,27.0,138.05,32.13,24.65,36.49,1.08,2.71,-26.37,-62,541,-939,27.1,14.6,-2.2,27.0,1.3,-31.1,5.73,2.39,-27.7,31.0
2012-06-16 00:59:00,0.0,1.8827,0.0008,400.28,0.37,36.3,30.8,138.05,32.12,24.65,36.49,0.99,0.82,-26.35,-62,541,-939,27.1,14.5,-2.2,27.0,1.3,-31.1,5.73,2.38,-27.7,31.1
2012-06-16 01:00:00,0.0,1.8828,0.0009,400.29,0.28,26.1,26.3,138.05,32.11,24.65,36.49,1.06,-0.96,-26.34,-62,541,-939,27.1,14.4,-2.3,27.0,1.3,-31.1,5.73,2.38,-27.7,31.1
2012-06-16 01:01:00,0.0,1.8831,0.0011,400.25,0.32,27.8,25.2,138.05,32.11,24.65,36.49,1.09,-2.64,-26.32,-62,541,-939,27.0,14.5,-2.3,27.0,1.3,-31.1,5.73,2.38,-27.8,31.0
2012-06-16 01:02:00,0.0,1.8830,0.0010,400.29,0.28,34.5,24.6,138.05,32.10,24.65,36.49,0.99,-4.21,-26.31,-62,541,-939,27.0,14.3,-2.4,27.0,1.3,-31.1,5.73,2.39,-27.7,31.0
2012-06-16 01:03:00,0.0,1.8829,0.0010,400.33,0.33,37.4,25.4,138.05,32.10,24.65,36.49,1.04,-5.70,-26.29,-62,541,-939,27.0,14.3,-2.5,27.0,1.3,-31.1,5.73,2.40,-27.8,31.0
2012-06-16 01:04:00,0.0,1.8834,0.0009,400.36,0.31,38.4,30.1,138.05,32.10,24.65,36.49,1.10,-7.08,-26.29,-62,541,-939,27.0,14.2,-2.5,27.0,1.3,-31.2,5.73,2.39,-27.7,31.1
2012-06-16 01:05:00,0.0,1.8831,0.0008,400.28,0.27,33.1,26.7,138.05,32.09,24.65,36.49,1.00,-8.31,-26.28,-62,541,-939,27.0,14.3,-2.5,27.0,1.3,-31.1,5.73,2.38,-27.7,31.0
2012-06-16 01:06:00,0.0,1.8832,0.0010,400.33,0.32,29.8,24.6,138.05,32.09,24.65,36.49,0.99,-9.19,-26.28,-62,541,-939,27.0,14.1,-2.7,27.0,1.3,-31.2,5.73,2.38,-27.7,31.1
2012-06-16 01:07:00,0.0,1.8831,0.0009,400.25,0.31,36.3,26.7,138.05,32.08,24.65,36.49,1.07,-10.50,-26.28,-62,541,-939,27.0,14.0,-2.8,27.0,1.3,-31.1,5.73,2.37,-27.7,31.0
2012-06-16 01:08:00,0.0,1.8833,0.0010,400.34,0.28,38.5,29.6,138.05,32.08,24.65,36.49,1.08,-11.48,-26.27,-62,541,-939,27.0,14.3,-2.5,27.0,1.3,-31.1,5.73,2.39,-27.7,31.0
2012-06-16 01:09:00,0.0,1.8828,0.0012,400.24,0.30,31.7,28.4,138.05,32.07,24.65,36.49,0.98,-12.52,-26.27,-62,541,-939,27.1,14.3,-2.5,27.0,1.3,-31.1,5.73,2.40,-27.7,31.0
2012-06-16 01:10:00,0.0,1.8824,0.0009,400.28,0.31,35.0,31.5,138.05,32.06,24.65,36.49,1.00,-13.51,-26.28,-62,541,-939,27.1,14.3,-2.4,27.0,1.3,-31.1,5.73,2.39,-27.7,31.0
2012-06-16 01:11:00,0.0,1.8825,0.0012,400.27,0.34,30.8,25.6,138.05,32.06,24.66,36.49,1.23,-33.70,-45.61,-62,541,-939,27.1,14.7,-2.1,27.0,1.3,-31.2,5.42,2.45,-31.9,31.1
2012-06-16 01:12:00,0.0,1.8826,0.0010,400.34,0.30,31.9,25.4,138.05,32.05,24.66,36.49,1.06,-15.28,-26.28,-62,541,-939,27.1,14.2,-2.5,27.0,1.3,-31.1,5.73,2.38,-27.7,31.1
2012-06-16 01:13:00,0.0,1.8832,0.0010,400.42,0.32,32.9,28.5,138.05,32.05,24.65,36.48,0.98,-16.09,-26.28,-62,541,-939,27.1,14.2,-2.5,27.0,1.3,-31.1,5.73,2.37,-27.7,31.1
2012-06-16 01:14:00,0.0,1.8830,0.0009,400.31,0.27,28.3,24.2,138.05,32.04,24.65,36.49,1.01,-16.85,-26.29,-62,541,-939,27.1,14.3,-2.4,27.0,1.3,-31.1,5.73,2.38,-27.7,31.1
2012-06-16 01:15:00,0.0,1.8827,0.0011,400.30,0.33,35.2,27.4,138.05,32.04,24.65,36.49,1.06,-17.52,-26.29,-62,541,-939,27.1,14.3,-2.4,27.0,1.3,-31.1,5.73,2.39,-27.6,31.1
2012-06-16 01:16:00,0.0,1.8829,0.0010,400.34,0.37,27.3,27.1,138.05,32.03,24.65,36.49,1.07,-18.18,-26.29,-62,541,-939,27.1,14.3,-2.5,27.0,1.3,-31.1,5.73,2.40,-27.7,31.1
2012-06-16 01:17:00,0.0,1.8829,0.0009,400.26,0.29,35.6,26.9,138.05,32.03,24.65,36.49,0.98,-18.80,-26.30,-62,541,-939,27.1,14.5,-2.2,27.0,1.3,-31.1,5.73,2.39,-27.6,31.1
2012-06-16 01:18:00,0.0,1.8834,0.0010,400.31,0.32,26.8,24.4,138.05,32.02,24.65,36.48,0.98,-19.39,-26.31,-62,541,-939,27.1,14.7,-2.1,27.0,1.3,-31.1,5.73,2.38,-27.6,31.1
2012-06-16 01:19:00,0.0,1.8830,0.0009,400.33,0.33,33.9,30.8,138.05,32.02,24.65,36.49,1.06,-19.96,-26.31,-62,541,-939,27.1,14.5,-2.2,27.0,1.3,-31.1,5.73,2.37,-27.7,31.1
2012-06-16 01:20:00,0.0,1.8829,0.0010,400.30,0.32,32.6,26.8,138.05,32.01,24.65,36.49,1.07,-20.50,-26.32,-62,541,-939,27.1,14.3,-2.4,27.0,1.3,-31.1,5.73,2.38,-27.7,31.1
2012-06-16 01:21:00,0.0,1.8830,0.0008,400.33,0.35,28.2,24.4,138.05,32.01,24.65,36.49,0.99,-21.01,-26.32,-62,541,-939,27.1,14.1,-2.6,27.0,1.3,-31.1,5.73,2.39,-27.6,31.1
2012-06-16 01:22:00,0.0,1.8827,0.0008,400.35,0.29,34.8,32.2,138.05,32.00,24.65,36.48,0.98,-21.49,-26.33,-62,541,-939,27.1,14.2,-2.5,27.0,1.3,-31.1,5.73,2.39,-27.7,31.1
2012-06-16 01:23:00,0.0,1.8830,0.0011,400.24,0.34,27.9,25.2,138.05,32.00,24.65,36.49,1.04,-21.95,-26.34,-62,541,-939,27.1,14.4,-2.4,27.0,1.3,-31.1,5.73,2.39,-27.7,31.1
2012-06-16 01:24:00,0.0,1.8828,0.0009,400.37,0.29,27.9,26.1,138.05,32.00,24.65,36.49,1.07,-22.39,-26.35,-62,541,-939,27.1,14.5,-2.3,27.0,1.3,-31.1,5.73,2.38,-27.7,31.2
2012-06-16 01:25:00,0.0,1.8825,0.0008,400.29,0.32,36.3,27.9,138.05,31.99,24.65,36.49,1.01,-22.79,-26.36,-62,541,-939,27.1,14.4,-2.3,27.0,1.3,-31.1,5.73,2.38,-27.6,31.2
2012-06-16 01:26:00,0.0,1.8830,0.0009,400.43,0.30,26.4,24.0,138.05,31.99,24.65,36.48,0.97,-23.18,-26.36,-62,541,-939,27.1,14.1,-2.6,27.0,1.3,-31.0,5.73,2.37,-27.6,31.2
2012-06-16 01:27:00,0.0,1.8831,0.0010,400.28,0.37,30.8,28.9,138.05,31.98,24.65,36.49,1.01,-23.55,-26.37,-62,541,-939,27.1,14.1,-2.6,27.0,1.3,-31.1,5.73,2.38,-27.7,31.2
2012-06-16 01:28:00,0.0,1.8833,0.0010,400.33,0.31,29.8,25.2,138.05,31.98,24.65,36.49,1.07,-23.90,-26.38,-62,541,-940,27.1,14.2,-2.5,27.0,1.3,-31.1,5.73,2.39,-27.7,31.2
2012-06-16 01:29:00,0.0,1.8830,0.0010,400.39,0.29,26.0,23.0,138.05,31.98,24.65,36.48,1.04,-24.22,-26.39,-62,541,-939,27.1,14.3,-2.4,27.0,1.3,-31.1,5.73,2.39,-27.7,31.2
2012-06-16 01:30:00,0.0,1.8830,0.0010,400.26,0.30,30.3,25.4,138.05,31.97,24.65,36.50,0.97,-24.53,-26.40,-62,541,-939,27.1,14.2,-2.5,27.0,1.2,-31.3,5.73,2.39,-27.7,31.2
2012-06-16 01:31:00,0.0,1.8832,0.0010,400.34,0.29,21.3,24.8,138.05,31.97,24.65,36.48,0.99,-24.81,-26.40,-62,541,-939,27.1,14.4,-2.3,27.0,1.2,-31.3,5.73,2.38,-27.7,31.2
2012-06-16 01:32:00,0.0,1.8831,0.0010,400.37,0.35,22.4,24.8,138.05,31.97,24.65,36.48,1.04,-25.09,-26.41,-62,541,-939,27.1,14.4,-2.3,27.0,1.2,-31.3,5.73,2.37,-27.7,31.1
2012-06-16 01:33:00,0.0,1.8834,0.0010,400.28,0.32,37.7,27.0,138.05,31.96,24.65,36.49,1.07,-25.34,-26.42,-62,541,-939,27.1,14.2,-2.5,27.0,1.2,-31.3,5.73,2.38,-27.7,31.1
2012-06-16 01:34:00,0.0,1.8836,0.0010,400.37,0.29,28.1,28.6,138.05,31.95,24.65,36.49,0.99,-25.58,-26.43,-62,541,-939,27.1,13.9,-2.8,27.0,1.2,-31.3,5.73,2.38,-27.7,31.1
2012-06-16 01:35:00,0.0,1.8835,0.0009,400.33,0.30,30.5,26.8,138.05,31.95,24.65,36.49,0.97,-25.81,-26.43,-62,541,-939,27.1,13.9,-2.8,27.0,1.2,-31.3,5.73,2.40,-27.7,31.1
2012-06-16 01:36:00,0.0,1.8831,0.0009,400.35,0.26,23.6,22.6,138.05,31.95,24.65,36.49,1.01,-26.01,-26.43,-62,541,-939,27.1,14.0,-2.7,27.0,1.2,-31.4,5.73,2.39,-27.7,31.2
2012-06-16 01:37:00,0.0,1.8835,0.0009,400.40,0.28,23.0,23.6,138.05,31.94,24.65,36.48,1.05,-26.22,-26.44,-62,541,-939,27.1,14.0,-2.7,27.0,1.2,-31.3,5.73,2.39,-27.7,31.1
2012-06-16 01:38:00,0.0,1.8832,0.0011,400.24,0.31,27.3,27.2,138.05,31.94,24.65,36.49,1.02,-26.39,-26.45,-62,541,-939,27.1,14.4,-2.3,27.0,1.3,-31.3,5.73,2.37,-27.7,31.0
2012-06-16 01:39:00,0.0,1.8837,0.0010,400.36,0.33,25.8,26.3,138.05,31.93,24.65,36.49,0.97,-26.10,-26.45,-62,541,-939,27.1,14.4,-2.3,27.0,1.2,-31.3,5.73,2.37,-27.7,31.1
2012-06-16 01:40:00,0.0,1.8833,0.0013,400.29,0.32,27.9,27.0,138.05,31.93,24.65,36.49,0.97,-26.05,-26.46,-62,541,-939,27.1,14.3,-2.4,27.0,1.3,-31.3,5.73,2.38,-27.7,31.0
2012-06-16 01:41:00,0.0,1.8835,0.0011,400.35,0.28,20.5,21.8,138.05,31.93,24.65,36.49,1.01,-26.20,-26.47,-62,541,-939,27.1,14.3,-2.5,27.0,1.2,-31.4,5.73,2.40,-27.8,30.9
2012-06-16 01:42:00,0.0,1.8831,0.0009,400.30,0.30,21.3,21.5,138.05,31.92,24.65,36.49,1.04,-26.38,-26.47,-62,541,-939,27.0,14.3,-2.5,27.0,1.2,-31.3,5.73,2.39,-27.8,30.9
2012-06-16 01:43:00,0.0,1.8831,0.0010,400.24,0.33,29.3,25.7,138.05,31.92,24.65,36.49,0.95,-26.26,-26.48,-62,541,-939,27.0,14.2,-2.5,27.0,1.2,-31.4,5.73,2.39,-27.8,30.9
2012-06-16 01:44:00,0.0,1.8836,0.0009,400.39,0.34,18.2,20.7,138.05,31.92,24.65,36.48,1.04,-26.04,-26.48,-62,541,-939,27.0,14.1,-2.6,27.0,1.2,-31.4,5.73,2.38,-27.8,30.9
2012-06-16 01:45:00,0.0,1.8833,0.0010,400.34,0.31,21.4,25.8,138.05,31.91,24.65,36.49,0.97,-26.16,-26.49,-62,541,-939,27.0,14.2,-2.6,27.0,1.2,-31.3,5.73,2.37,-27.8,31.0
2012-06-16 01:46:00,0.0,1.8834,0.0010,400.33,0.31,22.8,24.1,138.05,31.91,24.65,36.49,0.98,-26.33,-26.50,-62,541,-939,27.0,14.0,-2.8,27.0,1.2,-31.4,5.73,2.37,-27.8,31.0
2012-06-16 01:47:00,0.0,1.8828,0.0009,400.28,0.32,25.2,25.1,138.05,31.91,24.65,36.49,0.96,-26.44,-26.50,-62,541,-939,27.0,14.2,-2.6,27.0,1.2,-31.3,5.73,2.38,-27.7,31.0
2012-06-16 01:48:00,0.0,1.8830,0.0009,400.23,0.30,24.9,25.7,138.05,31.90,24.65,36.49,1.03,-26.10,-26.51,-62,541,-939,27.0,14.3,-2.5,27.0,1.2,-31.3,5.73,2.39,-27.7,31.1
2012-06-16 01:49:00,0.0,1.8830,0.0010,400.21,0.29,26.9,26.7,138.05,31.90,24.65,36.49,1.06,-26.12,-26.50,-62,541,-939,27.0,14.4,-2.3,27.0,1.3,-31.3,5.73,2.39,-27.7,31.0
2012-06-16 01:50:00,0.0,1.8828,0.0011,400.20,0.36,27.3,28.0,138.05,31.89,24.65,36.49,0.84,-26.29,-25.72,-62,541,-939,27.0,14.6,-2.2,27.0,1.2,-31.6,5.73,2.39,-27.7,31.0
2012-06-16 01:51:00,0.0,1.8832,0.0009,400.32,0.26,24.3,24.4,138.05,31.89,24.65,36.48,0.88,-26.45,-23.91,-62,541,-939,27.0,14.4,-2.4,27.0,1.3,-30.7,5.73,2.38,-27.7,31.0
2012-06-16 01:52:00,0.0,1.8829,0.0009,400.29,0.38,26.3,24.3,138.05,31.89,24.65,36.49,0.91,-26.54,-21.93,-62,541,-939,27.0,14.3,-2.5,27.0,1.5,-29.5,5.73,2.38,-27.7,31.1
2012-06-16 01:53:00,0.0,1.8830,0.0010,400.30,0.33,24.7,20.8,138.05,31.88,24.65,36.49,0.94,-26.58,-19.98,-62,541,-939,27.0,14.0,-2.7,27.0,1.6,-28.8,5.73,2.38,-27.7,31.1
2012-06-16 01:54:00,0.0,1.8830,0.0012,400.34,0.31,27.5,20.9,138.05,31.88,24.65,36.48,0.95,-26.59,-18.11,-62,541,-939,27.0,14.0,-2.7,27.0,1.6,-28.7,5.73,2.38,-27.7,31.1
2012-06-16 01:55:00,0.0,1.8828,0.0009,400.29,0.34,31.3,26.4,138.05,31.87,24.65,36.49,0.87,-26.58,-16.33,-62,541,-939,27.1,14.1,-2.7,27.0,1.6,-28.6,5.73,2.39,-27.7,31.1
2012-06-16 01:56:00,0.0,1.8831,0.0011,400.30,0.33,24.1,24.9,138.05,31.87,24.65,36.48,0.83,-26.56,-14.64,-62,541,-939,27.1,14.2,-2.6,27.0,1.6,-28.7,5.73,2.40,-27.7,31.1
2012-06-16 01:57:00,0.0,1.8827,0.0010,400.30,0.26,27.1,25.3,138.05,31.87,24.65,36.49,0.84,-26.55,-13.04,-62,541,-938,27.1,14.1,-2.7,27.0,1.6,-28.8,5.73,2.39,-27.7,31.1
2012-06-16 01:58:00,0.0,1.8828,0.0010,400.33,0.31,24.9,23.5,138.05,31.86,24.65,36.49,0.91,-26.53,-11.54,-62,541,-939,27.1,14.1,-2.6,27.0,1.6,-28.9,5.73,2.39,-27.7,31.1
2012-06-16 01:59:00,0.0,1.8827,0.0009,400.25,0.31,25.4,23.9,138.05,31.86,24.65,36.49,0.94,-26.50,-10.10,-62,541,-939,27.0,14.0,-2.7,27.0,1.6,-29.1,5.73,2.38,-27.7,31.1
2012-06-16 02:00:00,1.0,1.8956,0.0087,388.96,7.82,18.7,22.9,138.05,31.86,24.65,36.50,0.98,-26.48,-8.69,-62,574,-939,27.0,14.0,-2.8,27.0,1.5,-29.2,5.73,2.38,-27.7,31.1
2012-06-16 02:01:00,1.0,1.9055,0.0010,380.36,0.28,13.8,18.1,138.05,31.86,24.65,36.50,0.93,-26.46,-7.46,-62,574,-939,27.0,14.2,-2.6,27.0,1.5,-29.3,5.73,2.37,-27.8,31.2
2012-06-16 02:02:00,1.0,1.9057,0.0009,380.51,0.29,17.9,23.2,138.05,31.86,24.65,36.49,0.85,-26.43,-6.24,-62,573,-939,27.0,14.0,-2.7,27.0,1.5,-29.5,5.73,2.37,-27.8,31.1
2012-06-16 02:03:00,1.0,1.9056,0.0010,380.61,0.30,16.5,21.4,138.05,31.86,24.65,36.49,0.85,-26.40,-5.07,-62,573,-939,27.0,14.0,-2.8,27.0,1.5,-29.5,5.73,2.38,-27.7,31.2
2012-06-16 02:04:00,1.0,1.9057,0.0009,380.42,0.26,14.3,20.5,138.05,31.85,24.65,36.49,0.90,-26.38,-3.97,-62,573,-939,27.0,13.9,-2.8,27.0,1.5,-29.7,5.73,2.37,-27.7,31.1
2012-06-16 02:05:00,0.0,1.8931,0.0087,391.84,7.73,23.2,25.7,138.05,31.85,24.65,36.49,0.92,-26.35,-2.88,-62,540,-939,27.0,13.8,-2.9,27.0,1.5,-29.7,5.73,2.40,-27.7,31.2
2012-06-16 02:06:00,0.0,1.8835,0.0009,400.28,0.38,21.2,20.3,138.05,31.85,24.65,36.49,0.94,-26.33,-1.91,-62,540,-938,27.0,13.9,-2.8,27.0,1.4,-29.9,5.73,2.41,-27.7,31.2
2012-06-16 02:07:00,0.0,1.8837,0.0009,400.27,0.26,22.9,24.6,138.05,31.85,24.65,36.49,0.96,-26.31,-0.96,-62,540,-939,27.1,14.0,-2.7,27.0,1.4,-29.8,5.73,2.41,-27.7,31.2
2012-06-16 02:08:00,0.0,1.8831,0.0008,400.38,0.32,27.2,23.3,138.05,31.84,24.65,36.48,0.95,-26.29,-0.07,-62,540,-938,27.1,13.9,-2.8,27.0,1.4,-29.8,5.73,2.41,-27.7,31.2
2012-06-16 02:09:00,0.0,1.8838,0.0009,400.35,0.25,18.0,21.6,138.05,31.84,24.65,36.49,0.93,-26.27,0.79,-62,540,-939,27.1,14.0,-2.7,27.0,1.4,-29.9,5.73,2.40,-27.7,31.2
2012-06-16 02:10:00,0.0,1.8834,0.0009,400.36,0.33,20.7,20.6,138.05,31.84,24.65,36.48,0.88,-26.24,1.60,-62,541,-938,27.1,14.2,-2.6,27.0,1.4,-30.1,5.73,2.40,-27.8,31.1
2012-06-16 02:11:00,0.0,1.8835,0.0010,400.36,0.30,19.4,22.2,138.05,31.84,24.65,36.48,0.89,-26.22,2.35,-62,541,-939,27.1,14.0,-2.7,27.0,1.4,-30.1,5.73,2.40,-27.8,31.2
2012-06-16 02:12:00,0.0,1.8832,0.0010,400.38,0.28,19.2,22.2,138.05,31.84,24.65,36.48,0.89,-26.20,2.96,-62,540,-938,27.1,14.0,-2.8,27.0,1.4,-30.0,5.73,2.40,-27.8,31.2
2012-06-16 02:13:00,0.0,1.8834,0.0009,400.29,0.34,22.5,23.6,138.05,31.84,24.65,36.49,0.93,-26.18,3.27,-62,541,-939,27.1,14.1,-2.6,27.0,1.4,-30.0,5.73,2.40,-27.8,31.2
2012-06-16 02:14:00,0.0,1.8834,0.0009,400.29,0.27,35.2,29.9,138.05,31.83,24.65,36.49,0.91,-26.17,3.53,-62,540,-938,27.1,14.3,-2.5,27.0,1.4,-30.0,5.73,2.39,-27.8,31.2
2012-06-16 02:15:00,0.0,1.8835,0.0012,400.31,0.27,21.0,24.1,138.05,31.83,24.65,36.49,0.94,-26.15,3.98,-62,540,-939,27.1,14.1,-2.6,27.0,1.4,-30.1,5.73,2.39,-27.8,31.1
2012-06-16 02:16:00,0.0,1.8836,0.0011,400.34,0.32,22.0,23.0,138.05,31.83,24.65,36.49,0.95,-26.13,4.57,-62,541,-939,27.1,13.9,-2.8,27.0,1.4,-30.2,5.73,2.39,-27.8,31.2
2012-06-16 02:17:00,0.0,1.8834,0.0011,400.37,0.26,20.8,22.4,138.05,31.83,24.65,36.49,0.96,-26.12,5.19,-62,540,-938,27.1,14.1,-2.7,27.0,1.4,-30.2,5.73,2.39,-27.8,31.2
2012-06-16 02:18:00,0.0,1.8838,0.0010,400.22,0.31,25.4,24.4,138.05,31.83,24.65,36.50,0.95,-26.10,5.76,-62,541,-938,27.1,14.1,-2.6,27.0,1.4,-30.3,5.73,2.39,-27.8,31.2
2012-06-16 02:19:00,0.0,1.8840,0.0011,400.29,0.32,17.1,21.5,138.05,31.83,24.65,36.49,0.95,-26.08,6.32,-62,540,-939,27.1,14.2,-2.5,27.0,1.4,-30.3,5.73,2.40,-27.8,31.2
2012-06-16 02:20:00,0.0,1.8836,0.0010,400.29,0.32,24.5,26.7,138.05,31.83,24.65,36.49,0.90,-26.07,6.84,-62,540,-938,27.1,14.0,-2.7,27.0,1.4,-30.2,5.73,2.39,-27.8,31.2